{"data":{"norad_id":53060,"epoch":"2026-09-19T22:09:07.848864Z","epoch_age_seconds":119292,"freshness":"FRESH","line1":"1 53060U 22077T   26262.92300751  .00000661  00000+0  22815-4 0  9991","line2":"2 53060  97.2851  77.7657 0001589  89.2195 270.9230 15.33435951230203","mean_motion":15.33435951,"eccentricity":0.0001589,"inclination_deg":97.2851,"raan_deg":77.7657,"arg_perigee_deg":89.2195,"mean_anomaly_deg":270.923,"bstar":2.2815e-5,"rev_number":23020,"period_min":93.906758809257,"perigee_km":464.48263301013,"apogee_km":466.6575631259,"semimajor_km":6843.707098068,"source":"CELESTRAK","updated_at":"2026-09-20T09:00:40.153293Z"}}